This is the latest recevied weather packets stored in our database for station/object AC4AG. If no packets are shown the sender has not sent any weather packets the latest 10 day(s).
| Time | Temp. | Humidity | Pressure | Rain* | Wind** | Luminosity | Snow |
|---|---|---|---|---|---|---|---|
| 1777609723 | 6.11° C | 90% | 1015.2 hPa | 0 mm | - | 0 W/m² | - |
| 1777609420 | 6.11° C | 90% | 1015.4 hPa | 0 mm | - | 0 W/m² | - |
| 1777609118 | 6.11° C | 88% | 1015.5 hPa | 0 mm | - | 0 W/m² | - |
| 1777608815 | 6.67° C | 87% | 1015.3 hPa | 0 mm | - | 0 W/m² | - |
| 1777608512 | 6.67° C | 86% | 1015.3 hPa | 0 mm | - | 0 W/m² | - |
| 1777608210 | 7.22° C | 84% | 1015.3 hPa | 0 mm | - | 0 W/m² | - |
| 1777607907 | 7.78° C | 81% | 1015.4 hPa | 0 mm | - | 0 W/m² | - |
| 1777607602 | 7.78° C | 79% | 1015 hPa | 0 mm | - | 0 W/m² | - |
| 1777607299 | 7.78° C | 77% | 1015.2 hPa | 0 mm | - | 0 W/m² | - |
| 1777606995 | 8.33° C | 75% | 1015.4 hPa | 0 mm | - | 0 W/m² | - |
| 1777606691 | 8.33° C | 75% | 1015.4 hPa | 0 mm | - | 0 W/m² | - |
| 1777606386 | 8.89° C | 76% | 1015.4 hPa | 0 mm | - | 0 W/m² | - |
| 1777606081 | 8.89° C | 72% | 1015.3 hPa | 0 mm | - | 0 W/m² | - |
| 1777605778 | 8.89° C | 73% | 1015.3 hPa | 0 mm | - | 0 W/m² | - |
| 1777605476 | 8.89° C | 72% | 1015.5 hPa | 0 mm | - | 0 W/m² | - |
| 1777605174 | 8.89° C | 72% | 1015.4 hPa | 0 mm | - | 0 W/m² | - |
| 1777604869 | 8.89° C | 72% | 1015.4 hPa | 0 mm | - | 0 W/m² | - |
| 1777604565 | 8.89° C | 72% | 1015.6 hPa | 0 mm | - | 0 W/m² | - |
| 1777604261 | 9.44° C | 72% | 1015.5 hPa | 0 mm | - | 0 W/m² | - |
| 1777603957 | 9.44° C | 70% | 1015.4 hPa | 0 mm | - | 0 W/m² | - |
| 1777603654 | 9.44° C | 70% | 1015.4 hPa | 0 mm | - | 0 W/m² | - |
| 1777603351 | 9.44° C | 70% | 1015.4 hPa | 0 mm | - | 0 W/m² | - |
| 1777603046 | 8.89° C | 70% | 1015.6 hPa | 0 mm | - | 0 W/m² | - |
| 1777602741 | 8.89° C | 70% | 1015.4 hPa | 0 mm | - | 0 W/m² | - |
| 1777602436 | 8.89° C | 70% | 1015.4 hPa | 0 mm | - | 0 W/m² | - |
* Rain latest hour (hover to see other rain measurements)
** Current wind speed in m/s (hover to see current wind gust speed)